Weather History for Fayetteville, AR

Change the Weather History Date:

Wednesday, January 30, 2013

  Actual Average Record
Temperature  
Mean Temperature 35 °F 36 °F  
Max Temperature 48 °F 48 °F 72 °F (1967)
Min Temperature 22 °F 25 °F -8 °F (1966)
Degree Days  
Heating Degree Days 30 29  
Month to date heating degree days 786 888  
Since 1 July heating degree days 2304 2571  
Moisture  
Dew Point 31 °F    
Average Humidity 82    
Maximum Humidity 100    
Minimum Humidity 63    
Precipitation  
Precipitation T in 0.09 in 1.07 in (2002)
Month to date precipitation 3.03 2.75  
Year to date precipitation 3.03 2.75  
Sea Level Pressure  
Sea Level Pressure 29.76 in    
Wind  
Wind Speed 15 mph (NW)    
Max Wind Speed 20 mph    
Max Gust Speed 31 mph    
Visibility 9 miles    
Events Snow    
T = Trace of Precipitation, MM = Missing Value Source: NWS Daily Summary

Daily Weather History Graph

Daily Weather History Graph

Search for Another Location

Airport:

Trip Planner

Search our weather history database for the weather conditions in past years. The results will help you decide how hot, cold, wet, or windy it might be!

Date:

Astronomy

Jan. 30, 2013 Rise Set
Actual Time 7:18 AM CST 5:41 PM CST
Civil Twilight 6:51 AM CST 6:08 PM CST
Nautical Twilight 6:20 AM CST 6:39 PM CST
Astronomical Twilight 5:50 AM CST 7:09 PM CST
Moon 9:31 PM CST (1/30) 8:55 AM CST (1/30)
Length of Visible Light 11h 17m
Length of Day
10h 23m
Waning Gibbous, 87% of the Moon is Illuminated
Jan 30
Waning Gibbous
Feb 3
Last Quarter
Feb 10
New
Feb 17
First Quarter
Feb 25
Full

Hourly Weather History & Observations

Time (CST) Temp. Windchill Dew Point Humidity Pressure Visibility Wind Dir Wind Speed Gust Speed Precip Events Conditions
12:53 AM 46.9 °F - 46.9 °F 100% 29.51 in 10.0 mi North - - N/A   Mostly Cloudy
1:23 AM 48.2 °F - 46.4 °F 93% 29.54 in 10.0 mi North - - N/A   Mostly Cloudy
1:44 AM 46.4 °F - 46.4 °F 100% 29.54 in 10.0 mi North - - N/A   Overcast
1:53 AM 46.0 °F - 46.0 °F 100% 29.53 in 10.0 mi North - - N/A   Overcast
2:53 AM 44.1 °F - 44.1 °F 100% 29.55 in 4.0 mi North - - N/A   Overcast
3:19 AM 42.8 °F - 42.8 °F 100% 29.57 in 5.0 mi North - - N/A   Overcast
3:45 AM 41.0 °F - 41.0 °F 100% 29.55 in 3.0 mi North - - N/A   Overcast
3:53 AM 39.9 °F - 39.9 °F 100% 29.56 in 3.0 mi North - - N/A   Overcast
4:21 AM 39.2 °F - 37.4 °F 93% 29.57 in 6.0 mi North - - N/A   Overcast
4:35 AM 39.2 °F - 37.4 °F 93% 29.57 in 7.0 mi North - - N/A   Overcast
4:53 AM 37.9 °F - 37.0 °F 97% 29.58 in 7.0 mi North - - N/A   Overcast
5:53 AM 37.0 °F - 35.1 °F 93% 29.61 in 10.0 mi North - - 0.00 in   Overcast
6:09 AM 37.4 °F - 33.8 °F 87% 29.61 in 10.0 mi North - - N/A   Overcast
6:53 AM 37.0 °F - 33.1 °F 86% 29.65 in 10.0 mi North - - N/A   Overcast
7:53 AM 36.0 °F - 30.0 °F 79% 29.70 in 10.0 mi North - - N/A   Overcast
8:30 AM 35.6 °F - 30.2 °F 81% 29.70 in 7.0 mi North - - 0.00 in Snow Light Snow
8:53 AM 35.1 °F - 30.9 °F 85% 29.72 in 10.0 mi North - - 0.00 in   Overcast
9:53 AM 35.1 °F 26.9 °F 28.9 °F 78% 29.74 in 10.0 mi NW 11.5 mph 20.7 mph N/A   Overcast
10:40 AM 35.6 °F 25.5 °F 26.6 °F 70% 29.76 in 10.0 mi WNW 17.3 mph 24.2 mph N/A   Overcast
10:53 AM 35.1 °F 24.8 °F 28.0 °F 76% 29.78 in 10.0 mi NNW 17.3 mph 24.2 mph N/A   Overcast
11:06 AM 33.8 °F 22.8 °F 26.6 °F 75% 29.78 in 10.0 mi NNW 18.4 mph 28.8 mph N/A   Overcast
11:14 AM 33.8 °F 22.8 °F 26.6 °F 75% 29.78 in 10.0 mi NNW 18.4 mph 28.8 mph N/A   Overcast
11:22 AM 33.8 °F 22.8 °F 26.6 °F 75% 29.79 in 10.0 mi NNW 18.4 mph 28.8 mph N/A   Overcast
11:53 AM 33.1 °F 21.9 °F 27.0 °F 78% 29.82 in 10.0 mi NNW 18.4 mph 28.8 mph N/A   Overcast
12:53 PM 30.9 °F 19.1 °F 24.1 °F 76% 29.86 in 10.0 mi NW 18.4 mph 31.1 mph N/A   Overcast
1:53 PM 30.9 °F 18.7 °F 24.1 °F 76% 29.88 in 10.0 mi NW 19.6 mph 27.6 mph N/A   Overcast
2:53 PM 30.9 °F 19.4 °F 21.9 °F 69% 29.91 in 10.0 mi NW 17.3 mph 23.0 mph N/A   Overcast
3:53 PM 30.9 °F 19.4 °F 21.9 °F 69% 29.95 in 10.0 mi WNW 17.3 mph 25.3 mph N/A   Overcast
4:53 PM 30.0 °F 18.3 °F 19.9 °F 66% 29.98 in 10.0 mi WNW 17.3 mph 23.0 mph N/A   Overcast
5:53 PM 30.0 °F 19.5 °F 21.0 °F 69% 29.99 in 10.0 mi WNW 13.8 mph - N/A   Overcast
6:53 PM 30.0 °F 19.5 °F 21.9 °F 72% 30.02 in 10.0 mi WNW 13.8 mph - N/A   Overcast
7:53 PM 28.0 °F 20.0 °F 21.0 °F 75% 30.03 in 10.0 mi West 8.1 mph - N/A   Clear
8:53 PM 28.0 °F 20.8 °F 21.9 °F 78% 30.05 in 10.0 mi West 6.9 mph - N/A   Clear
9:53 PM 26.1 °F - 21.0 °F 81% 30.06 in 10.0 mi North - - N/A   Clear
10:53 PM 26.1 °F - 19.9 °F 78% 30.08 in 10.0 mi North - - N/A   Clear
11:53 PM 21.9 °F - 19.9 °F 92% 30.09 in 10.0 mi North - - N/A   Clear